TimePST,TemperatureF,Dew PointF,Humidity,Sea Level PressureIn,VisibilityMPH,Wind Direction,Wind SpeedMPH,Gust SpeedMPH,PrecipitationIn,Events,Conditions,WindDirDegrees,DateUTC
12:15 AM,48.2,42.8,82,30.11,10.0,SE,8.1,-,N/A,,Overcast,140,2013-11-05 08:15:00
12:35 AM,48.2,44.6,87,30.11,10.0,SSE,8.1,-,N/A,,Overcast,150,2013-11-05 08:35:00
12:55 AM,48.2,44.6,87,30.11,10.0,SE,15.0,18.4,N/A,,Overcast,140,2013-11-05 08:55:00
1:15 AM,48.2,44.6,87,30.11,10.0,SE,10.4,20.7,N/A,,Overcast,140,2013-11-05 09:15:00
1:35 AM,48.2,44.6,87,30.10,10.0,SE,12.7,21.9,N/A,,Overcast,130,2013-11-05 09:35:00
1:55 AM,48.2,44.6,87,30.10,10.0,SE,12.7,21.9,N/A,,Overcast,140,2013-11-05 09:55:00
2:15 AM,48.2,44.6,87,30.10,10.0,SE,10.4,17.3,N/A,,Overcast,140,2013-11-05 10:15:00
2:35 AM,50.0,44.6,82,30.11,10.0,SSE,10.4,-,N/A,,Overcast,150,2013-11-05 10:35:00
2:55 AM,48.2,44.6,87,30.10,10.0,SE,11.5,18.4,N/A,,Overcast,140,2013-11-05 10:55:00
3:15 AM,50.0,44.6,82,30.10,10.0,SSE,10.4,-,N/A,,Overcast,150,2013-11-05 11:15:00
3:35 AM,48.2,44.6,87,30.10,10.0,SSE,6.9,17.3,0.04,,Overcast,150,2013-11-05 11:35:00
3:55 AM,48.2,44.6,87,30.10,5.0,SSE,6.9,-,0.04,,Overcast,150,2013-11-05 11:55:00
4:15 AM,48.2,44.6,87,30.11,8.0,SSE,8.1,-,0.01,,Overcast,160,2013-11-05 12:15:00
4:35 AM,48.2,44.6,87,30.11,10.0,SSE,6.9,-,0.01,,Overcast,160,2013-11-05 12:35:00
4:55 AM,48.2,44.6,87,30.10,10.0,SSE,9.2,-,0.01,,Overcast,150,2013-11-05 12:55:00
5:15 AM,48.2,44.6,87,30.10,10.0,SE,11.5,-,N/A,,Overcast,140,2013-11-05 13:15:00
5:35 AM,50.0,44.6,82,30.10,10.0,SSE,9.2,-,N/A,,Overcast,150,2013-11-05 13:35:00
5:55 AM,50.0,44.6,82,30.10,10.0,SSE,9.2,-,N/A,,Overcast,150,2013-11-05 13:55:00
6:15 AM,48.2,44.6,87,30.10,9.0,SSE,10.4,-,N/A,,Overcast,150,2013-11-05 14:15:00
6:35 AM,48.2,46.4,93,30.11,8.0,SSE,10.4,-,N/A,,Overcast,160,2013-11-05 14:35:00
6:55 AM,48.2,46.4,93,30.11,10.0,SSE,9.2,-,N/A,,Overcast,160,2013-11-05 14:55:00
7:15 AM,48.2,46.4,93,30.12,9.0,SSE,6.9,-,N/A,,Overcast,160,2013-11-05 15:15:00
7:35 AM,50.0,46.4,87,30.12,10.0,SSE,8.1,-,N/A,,Overcast,150,2013-11-05 15:35:00
7:55 AM,50.0,46.4,87,30.13,10.0,SSE,9.2,-,N/A,,Overcast,150,2013-11-05 15:55:00
8:15 AM,50.0,46.4,87,30.14,10.0,SSE,9.2,-,N/A,,Overcast,150,2013-11-05 16:15:00
8:35 AM,50.0,46.4,87,30.15,10.0,SSE,11.5,-,N/A,,Overcast,150,2013-11-05 16:35:00
8:55 AM,50.0,46.4,87,30.16,10.0,SSE,8.1,-,N/A,,Overcast,150,2013-11-05 16:55:00
9:15 AM,50.0,46.4,87,30.15,10.0,SSE,9.2,-,N/A,,Overcast,150,2013-11-05 17:15:00
9:35 AM,51.8,46.4,82,30.16,10.0,SSE,10.4,-,N/A,,Overcast,150,2013-11-05 17:35:00
9:55 AM,51.8,46.4,82,30.15,10.0,SSE,6.9,-,N/A,,Overcast,150,2013-11-05 17:55:00
10:15 AM,51.8,46.4,82,30.16,10.0,SSE,9.2,-,N/A,,Overcast,150,2013-11-05 18:15:00
10:35 AM,51.8,46.4,82,30.16,10.0,SSE,6.9,-,N/A,,Mostly Cloudy,160,2013-11-05 18:35:00
10:55 AM,51.8,46.4,82,30.16,10.0,SSE,6.9,-,N/A,,Overcast,160,2013-11-05 18:55:00
11:15 AM,51.8,46.4,82,30.16,10.0,SSE,6.9,-,N/A,,Overcast,160,2013-11-05 19:15:00
11:35 AM,51.8,46.4,82,30.16,10.0,SSE,9.2,-,N/A,,Overcast,160,2013-11-05 19:35:00
11:55 AM,51.8,46.4,82,30.15,10.0,SSE,6.9,-,N/A,,Overcast,160,2013-11-05 19:55:00
12:15 PM,51.8,46.4,82,30.15,10.0,SSE,9.2,-,N/A,,Overcast,160,2013-11-05 20:15:00
12:35 PM,53.6,46.4,77,30.17,10.0,West,8.1,-,0.01,,Overcast,260,2013-11-05 20:35:00
12:55 PM,51.8,46.4,82,30.17,10.0,Calm,Calm,-,0.01,,Overcast,0,2013-11-05 20:55:00
1:15 PM,53.6,46.4,77,30.17,10.0,SSE,3.5,-,N/A,,Overcast,160,2013-11-05 21:15:00
1:35 PM,53.6,46.4,77,30.17,10.0,SSE,5.8,-,N/A,,Mostly Cloudy,150,2013-11-05 21:35:00
1:55 PM,53.6,48.2,82,30.17,10.0,SSE,4.6,-,N/A,,Mostly Cloudy,160,2013-11-05 21:55:00
2:15 PM,53.6,48.2,82,30.17,10.0,South,5.8,-,N/A,,Overcast,180,2013-11-05 22:15:00
2:35 PM,53.6,48.2,82,30.18,10.0,Calm,Calm,-,N/A,,Overcast,0,2013-11-05 22:35:00
2:55 PM,53.6,48.2,82,30.19,10.0,South,3.5,-,N/A,,Overcast,170,2013-11-05 22:55:00
3:15 PM,53.6,48.2,82,30.19,10.0,Calm,Calm,-,N/A,,Overcast,0,2013-11-05 23:15:00
3:35 PM,53.6,48.2,82,30.20,10.0,WNW,5.8,-,N/A,,Overcast,290,2013-11-05 23:35:00
3:55 PM,53.6,44.6,72,30.20,10.0,NNW,3.5,-,N/A,,Mostly Cloudy,330,2013-11-05 23:55:00
4:15 PM,51.8,44.6,76,30.20,10.0,Calm,Calm,-,N/A,,Mostly Cloudy,0,2013-11-06 00:15:00
4:35 PM,51.8,44.6,76,30.22,10.0,Calm,Calm,-,N/A,,Overcast,0,2013-11-06 00:35:00
4:55 PM,51.8,44.6,76,30.22,10.0,Calm,Calm,-,N/A,,Overcast,0,2013-11-06 00:55:00
5:15 PM,51.8,44.6,76,30.23,10.0,Calm,Calm,-,N/A,,Overcast,0,2013-11-06 01:15:00
5:35 PM,51.8,44.6,76,30.23,10.0,Calm,Calm,-,N/A,,Overcast,0,2013-11-06 01:35:00
5:55 PM,51.8,44.6,76,30.23,10.0,Calm,Calm,-,N/A,,Overcast,0,2013-11-06 01:55:00
6:15 PM,50.0,44.6,82,30.24,10.0,Calm,Calm,-,N/A,,Overcast,0,2013-11-06 02:15:00
6:35 PM,50.0,44.6,82,30.24,10.0,Calm,Calm,-,N/A,,Overcast,0,2013-11-06 02:35:00
6:55 PM,50.0,44.6,82,30.25,10.0,Calm,Calm,-,N/A,,Overcast,0,2013-11-06 02:55:00
7:15 PM,48.2,44.6,87,30.25,10.0,Calm,Calm,-,N/A,,Overcast,0,2013-11-06 03:15:00
7:35 PM,48.2,44.6,87,30.25,10.0,Calm,Calm,-,N/A,,Overcast,0,2013-11-06 03:35:00
7:55 PM,48.2,44.6,87,30.26,10.0,Calm,Calm,-,N/A,,Overcast,0,2013-11-06 03:55:00
8:15 PM,48.2,44.6,87,30.26,10.0,Calm,Calm,-,N/A,,Overcast,0,2013-11-06 04:15:00
8:35 PM,48.2,44.6,87,30.26,10.0,Calm,Calm,-,N/A,,Overcast,0,2013-11-06 04:35:00
8:55 PM,48.2,44.6,87,30.26,10.0,Calm,Calm,-,N/A,,Overcast,0,2013-11-06 04:55:00
9:15 PM,48.2,44.6,87,30.27,10.0,Calm,Calm,-,N/A,,Overcast,0,2013-11-06 05:15:00
9:35 PM,48.2,44.6,87,30.28,10.0,Calm,Calm,-,N/A,,Overcast,0,2013-11-06 05:35:00
9:55 PM,46.4,42.8,87,30.28,10.0,Calm,Calm,-,N/A,,Mostly Cloudy,0,2013-11-06 05:55:00
10:15 PM,46.4,42.8,87,30.28,10.0,Calm,Calm,-,N/A,,Mostly Cloudy,0,2013-11-06 06:15:00
10:35 PM,46.4,42.8,87,30.28,10.0,Calm,Calm,-,N/A,,Mostly Cloudy,0,2013-11-06 06:35:00
10:55 PM,44.6,42.8,93,30.28,10.0,Calm,Calm,-,N/A,,Mostly Cloudy,0,2013-11-06 06:55:00
11:15 PM,46.4,42.8,87,30.29,10.0,Calm,Calm,-,N/A,,Overcast,0,2013-11-06 07:15:00
11:35 PM,46.4,42.8,87,30.28,10.0,Calm,Calm,-,N/A,,Overcast,0,2013-11-06 07:35:00
11:55 PM,46.4,42.8,87,30.28,10.0,Calm,Calm,-,N/A,,Overcast,0,2013-11-06 07:55:00